Flag for Hungary Weather past 2 weeks in Győr, Hungary

Now
49 °F

Cool.


Feels Like: 48 °F
Forecast: 35 / 57 °F
Wind: 5 mph from Northwest

Location: Gyor

Current Time: Mar 28, 2015 at 5:53:29 PM

Latest Report: Mar 28, 2015 at 5:00 PM


Visibility: N/A

Pressure: 30.01 "Hg

Humidity: 50%

Dew point: 31 °F

Location of GyőrLocation

Historic Weather in Győr — Graph

°F

Győr temperature yesterday

Maximum temperature yesterday: 52 °F (at 12:00 AM)
Minimum temperature yesterday: 46 °F (at 8:00 AM)
Average temperature yesterday: 49 °F

Past Weeks' High & Low Weather Summary

 TemperatureHumidityPressure
High66 °F (Mar 26, 3:00 PM)96% (Mar 15, 3:00 AM)30.56 "Hg (Mar 15, 3:00 AM)
Low28 °F (Mar 20, 6:00 AM)29% (Mar 19, 2:00 PM)29.72 "Hg (Mar 26, 5:00 PM)
Average46 °F65%30.14 "Hg
* Reported Mar 13 4:00 PM — Mar 28 4:00 PM, Győr, Weather by CustomWeather, © 2015

Note: Actual official high and low records may vary slightly from our data, if they occured in-between our weather recording intervals... More about our weather records

Advertising

Győr weather history for previous 24 hours

 ConditionsComfort  
Time TempWeatherWind HumidityBarometerVisibility
4:00 PM
Sat, Mar 28
51 °FCool.5 mph47%30.01 "HgN/A
3:00 PM51 °FCool.6 mph48%30.01 "HgN/A
2:00 PM50 °FCool.7 mph48%30.03 "HgN/A
1:00 PM51 °FCool.6 mph50%30.04 "HgN/A
12:00 PM49 °FCool.7 mph53%30.06 "HgN/A
11:00 AM51 °FCool.7 mph48%30.05 "HgN/A
10:00 AM50 °FCool.6 mph52%30.06 "HgN/A
9:00 AM48 °FCool.7 mph59%30.06 "HgN/A
8:00 AM47 °FCool.7 mph63%30.06 "HgN/A
7:00 AM44 °FQuite cool.6 mph67%30.06 "HgN/A
6:00 AM44 °FQuite cool.6 mph67%30.06 "HgN/A
5:00 AM44 °FQuite cool.6 mph66%30.04 "HgN/A
3:00 AM46 °FCool.6 mph63%30.02 "HgN/A
2:00 AM47 °FCool.7 mph60%30.02 "HgN/A
1:00 AM47 °FCool.7 mph59%30.01 "HgN/A
12:00 AM47 °FCool.5 mph61%30.01 "HgN/A
11:00 PM
Fri, Mar 27
48 °FCool.6 mph62%30.00 "HgN/A
10:00 PM49 °FCool.7 mph59%29.98 "HgN/A
9:00 PM49 °FCool.5 mph62%29.98 "HgN/A
8:00 PM49 °FCool.5 mph62%29.97 "HgN/A
7:00 PM49 °FCool.5 mph61%29.94 "HgN/A
6:00 PM50 °FCool.6 mph60%29.92 "HgN/A
5:00 PM50 °FCool.6 mph60%29.90 "HgN/A
Weather by CustomWeather, © 2015

See weather overviewHow to use our weather pages